Torna al catalogo

IRIDIUM 33 DEB

AttivoPO
NORAD 37562·DEBRIS·🇺🇸 United States

Lanciato Sep 14, 1997 da Baikonur Cosmodrome

Loading…

Prossimi Passaggi (prossime 24 ore)

TLE

AggiornatoSource: Space-Track

Epoca: Sep 14, 2026, 09:02 UTC

1 37562U 97051XX  26257.37640226  .00002359  00000-0  49880-3 0  9998
2 37562  86.3692 283.1591 0021184 250.7177 171.3787 14.58810705903446

Traccia IRIDIUM 33 DEB in tempo reale con AllMySat

Download on the App Store